Location: Arnolds Mill
(42.3415°N, 73.5951°W)
Time: 05:32:10
(UTC+00:00)

Oscar 11 - Pass Details

Date: 09 May 2026
Orbit: 591 x 601 km, 97.8° (Epoch: 11 June)

Event Time Altitude Azimuth Distance (km) Brightness Sun altitude
Rises 09:04:59 0° 4° (N) 2,860 11.0 -6.5°
Reaches altitude 10° 09:07:17 10° 356° (N) 1,953 10.0 -6.1°
Maximum altitude 09:11:10 36° 289° (WNW) 959 7.7 -5.5°
Drops below altitude 10° 09:15:01 10° 223° (SW) 1,938 9.0 -4.9°
Enters shadow 09:16:33 - 217° (SW) 2,534 9.6 -4.6°
